Weather History for Norman Wells, NT

Change the Weather History Date:

Friday, November 23, 2012

  Actual Average Record
Temperature  
Mean Temperature -14 °F -  
Max Temperature -7 °F -5 °F 21 °F (2003)
Min Temperature -22 °F -18 °F -23 °F (2006)
Degree Days  
Heating Degree Days 80    
Moisture  
Dew Point -19 °F    
Average Humidity 73    
Maximum Humidity 77    
Minimum Humidity 60    
Precipitation  
Precipitation 0.02 in 0.02 in - ()
Sea Level Pressure  
Sea Level Pressure 30.47 in    
Wind  
Wind Speed 1 mph ()    
Max Wind Speed 5 mph    
Max Gust Speed -    
Visibility 13.5 miles    
Events Snow    
Averages and records for this station are not official NWS values.
T = Trace of Precipitation, MM = Missing Value Source: Averaged Metar Reports

Daily Weather History Graph

Daily Weather History Graph

Search for Another Location

Airport:

Trip Planner

Search our weather history database for the weather conditions in past years. The results will help you decide how hot, cold, wet, or windy it might be!

Date:

Astronomy

Nov. 23, 2012 Rise Set
Actual Time 10:37 AM MST 3:49 PM MST
Civil Twilight 9:26 AM MST 5:00 PM MST
Nautical Twilight 8:19 AM MST 6:07 PM MST
Astronomical Twilight 7:19 AM MST 7:07 PM MST
Moon 2:40 PM MST (11/23) 4:19 AM MST (11/23)
Length of Visible Light 7h 34m
Length of Day
5h 12m
Waxing Gibbous, 80% of the Moon is Illuminated
Nov 23
Waxing Gibbous
Nov 28
Full
Dec 6
Last Quarter
Dec 13
New
Dec 19
First Quarter

Hourly Weather History & Observations

Time (MST) Temp. Windchill Dew Point Humidity Pressure Visibility Wind Dir Wind Speed Gust Speed Precip Events Conditions
12:00 AM -13.0 °F - -20.2 °F 70% 30.53 in 20.0 mi Calm Calm - N/A   Ice Crystals
1:00 AM -16.6 °F - -22.0 °F 76% 30.52 in 20.0 mi WSW 2.3 mph - N/A   Ice Crystals
2:00 AM -18.4 °F - -25.6 °F 70% 30.52 in 20.0 mi WNW 2.3 mph - N/A   Ice Crystals
3:00 AM -20.2 °F -30.9 °F -27.4 °F 69% 30.51 in 20.0 mi West 3.5 mph - N/A   Ice Crystals
4:00 AM -16.6 °F - -23.8 °F 70% 30.51 in 20.0 mi Calm Calm - N/A   Ice Crystals
5:00 AM -16 °F - -22 °F 60% 30.49 in 19 mi WNW 2.3 mph - - Snow Snow
5:00 AM -16.6 °F - -22.0 °F 76% 30.49 in 20.0 mi NW 2.3 mph - N/A   Ice Crystals
6:00 AM -14.8 °F - -22.0 °F 70% 30.48 in 20.0 mi Calm Calm - N/A   Ice Crystals
6:50 AM -14.8 °F - -20.2 °F 77% 30.47 in 20.0 mi Calm Calm - N/A Snow Light Snow
7:00 AM -14.8 °F - -20.2 °F 77% 30.47 in 20.0 mi SW 2.3 mph - N/A Snow Light Snow
8:00 AM -14.8 °F - -20.2 °F 77% 30.47 in 15.0 mi Calm Calm - N/A Snow Light Snow
9:00 AM -13.0 °F - -20.2 °F 70% 30.46 in 15.0 mi Calm Calm - N/A Snow Light Snow
10:00 AM -13.0 °F - -18.4 °F 77% 30.46 in 10.0 mi Calm Calm - N/A Snow Light Snow
11:00 AM -12 °F - -18 °F 62% 30.46 in 10 mi Calm Calm - - Snow Light Snow
11:00 AM -13.0 °F - -18.4 °F 77% 30.46 in 10.0 mi Calm Calm - N/A Snow Light Snow
12:00 PM -11.2 °F - -18.4 °F 70% 30.46 in 10.0 mi West 2.3 mph - N/A Snow Light Snow
1:00 PM -11.2 °F -20.6 °F -16.6 °F 77% 30.45 in 6.0 mi WNW 3.5 mph - N/A Snow Light Snow
2:00 PM -11.2 °F -20.6 °F -16.6 °F 77% 30.45 in 6.0 mi NW 3.5 mph - N/A Snow Light Snow
3:00 PM -9.4 °F -20.9 °F -14.8 °F 77% 30.45 in 10.0 mi WNW 4.6 mph - N/A Snow Light Snow
4:00 PM -9.4 °F -18.6 °F -14.8 °F 77% 30.45 in 10.0 mi WNW 3.5 mph - N/A Snow Light Snow
5:00 PM -9 °F - -15 °F 63% 30.47 in 10 mi WNW 3.5 mph - - Snow Light Snow
5:00 PM -9.4 °F -18.6 °F -14.8 °F 77% 30.46 in 10.0 mi WNW 3.5 mph - N/A Snow Light Snow
6:00 PM -9.4 °F -20.9 °F -14.8 °F 77% 30.45 in 10.0 mi WNW 4.6 mph - N/A Snow Light Snow
7:00 PM -9.4 °F -20.9 °F -14.8 °F 77% 30.45 in 10.0 mi WNW 4.6 mph - N/A Snow Light Snow
8:00 PM -9.4 °F - -14.8 °F 77% 30.45 in 10.0 mi Calm Calm - N/A Snow Light Snow
9:00 PM -7.6 °F - -14.8 °F 71% 30.46 in 10.0 mi WNW 2.3 mph - N/A Snow Light Snow
10:00 PM -9.4 °F - -14.8 °F 77% 30.46 in 10.0 mi Calm Calm - N/A Snow Light Snow
11:00 PM -12 °F - -18 °F 62% 30.46 in 10 mi Calm Calm - - Snow Light Snow
11:00 PM -13.0 °F - -18.4 °F 77% 30.46 in 10.0 mi Calm Calm - N/A Snow Light Snow